CDT,Max TemperatureF,Mean TemperatureF,Min TemperatureF,Max Dew PointF,MeanDew PointF,Min DewpointF,Max Humidity, Mean Humidity, Min Humidity, Max Sea Level PressureIn, Mean Sea Level PressureIn, Min Sea Level PressureIn, Max VisibilityMiles, Mean VisibilityMiles, Min VisibilityMiles, Max Wind SpeedMPH, Mean Wind SpeedMPH, Max Gust SpeedMPH,PrecipitationIn, CloudCover, Events, WindDirDegrees
2013-6-1,80,70,59,71,63,53,100,85,58,30.00,29.86,29.67,10,10,4,30,14,39,0.57,6,Rain-Thunderstorm,257
2013-6-2,66,60,53,57,54,51,94,80,65,30.08,30.04,29.99,10,9,1,12,4,,0.00,5,,340
2013-6-3,80,64,48,59,51,46,100,84,42,30.08,30.04,29.91,10,5,0,9,2,,0.00,2,Fog-Rain,95
2013-6-4,78,70,62,65,61,58,86,76,60,30.00,29.95,29.91,10,10,10,14,9,20,0.00,1,Rain,112
2013-6-5,81,72,64,68,63,60,96,85,58,30.04,29.94,29.86,10,9,4,15,8,22,0.41,4,Rain-Thunderstorm,172
2013-6-6,73,66,57,63,59,51,100,85,63,29.97,29.94,29.90,10,5,0,13,3,,0.00,6,Fog,326
2013-6-7,77,64,51,58,52,48,94,77,42,30.00,29.97,29.91,10,5,0,9,2,,0.00,1,Fog,326
2013-6-8,82,68,55,59,56,51,94,69,39,29.98,29.93,29.86,10,9,1,12,5,,0.00,0,,137
2013-6-9,82,73,64,68,61,56,88,69,41,29.93,29.88,29.85,10,10,2,14,7,20,0.09,4,Rain,201
2013-6-10,91,78,66,68,64,57,78,61,38,29.93,29.89,29.86,10,10,10,18,9,24,0.00,1,,223
2013-6-11,93,83,73,68,66,62,79,57,36,30.01,29.95,29.91,10,10,10,20,11,28,0.00,0,,197
2013-6-12,91,82,73,70,68,66,82,63,44,29.99,29.93,29.89,10,10,10,25,13,32,0.00,0,,210
2013-6-13,91,81,71,72,67,62,89,67,39,30.05,29.99,29.94,10,10,8,9,6,,0.00,1,,342
2013-6-14,95,82,70,73,69,65,87,69,49,30.03,29.98,29.93,10,10,9,12,7,17,0.00,2,,124
2013-6-15,91,80,69,72,68,64,94,73,52,30.08,30.01,29.94,10,10,8,18,9,26,0.17,4,Rain-Thunderstorm,139
2013-6-16,93,81,69,72,69,63,93,71,47,30.05,29.98,29.91,10,10,2,16,7,24,0.02,4,,171
2013-6-17,73,70,66,70,66,64,94,88,78,30.00,29.94,29.90,10,9,4,13,7,20,0.09,7,Rain,27
2013-6-18,86,73,60,70,63,59,100,87,40,30.07,30.01,29.96,10,4,0,10,3,17,0.00,4,Fog,24
2013-6-19,87,75,63,69,63,61,93,68,41,30.06,30.02,29.97,10,10,10,12,4,21,0.00,0,,135
2013-6-20,89,78,66,69,66,63,90,67,46,30.07,30.03,29.99,10,10,10,15,9,21,0.00,1,,136
2013-6-21,91,82,73,71,69,68,85,65,47,30.08,30.04,30.00,10,10,10,18,10,23,0.00,1,,161
2013-6-22,89,81,73,70,68,66,82,66,48,30.06,30.01,29.94,10,10,10,17,10,24,0.00,1,,152
2013-6-23,90,81,72,70,68,66,87,65,45,30.00,29.97,29.91,10,10,10,18,10,30,0.00,1,,153
2013-6-24,91,82,73,69,67,65,82,63,43,30.05,30.00,29.94,10,10,10,17,10,24,0.00,1,,167
2013-6-25,89,82,75,69,66,64,76,60,43,29.97,29.92,29.84,10,10,10,23,13,30,0.00,0,,179
2013-6-26,93,85,75,73,70,68,85,65,49,29.93,29.88,29.83,10,10,10,18,12,26,0.00,0,Rain-Thunderstorm,217
2013-6-27,96,84,73,73,70,67,90,61,38,29.98,29.93,29.86,10,10,10,10,6,,0.00,0,,228
2013-6-28,90,82,73,74,66,59,84,60,39,29.94,29.88,29.84,10,10,10,14,9,,0.00,1,,324
2013-6-29,86,75,64,60,54,49,84,52,29,29.89,29.85,29.80,10,10,10,22,7,28,0.00,1,,314
2013-6-30,77,69,61,59,57,54,90,70,48,29.97,29.92,29.84,10,10,1,14,6,20,0.00,5,,344